Regional Weather Roundup
Issued by NWS

Home | Current Version | Previous Version | Text Only | Print | Product List | Glossary Off
Versions: 1 2 3 4 5 6 7 8 9 10 11 12 13 14 15 16 17 18 19 20 21 22 23 24 25 26 27 28 29 30 31 32 33 34 35 36 37 38 39 40 41 42 43 44 45 46 47 48 49 50

000
ASUS45 KABQ 250201
RWRNM
WEATHER ROUNDUP FOR NEW MEXICO
NATIONAL WEATHER SERVICE ALBUQUERQUE NM
700 PM MST MON NOV 24 2014

NOTE: "FAIR" MEANS FEW OR NO CLOUDS BELOW 12,000 FEET AGL WITH NO
       SIGNIFICANT WEATHER OR OBSTRUCTIONS TO VISION.

      THIS PRODUCT IS RELEASED AS TWO VERSIONS.  ONE VERSION NEAR
      THE TOP OF THE HOUR CONTAINING PRELIMINARY DATA FROM ALBUQUERQUE
      AND OTHER STATIONS.  A FINAL VERSION WITH ADDITIONAL DATA IS
      ISSUED ABOUT 10 MINUTES AFTER THE HOUR.

NMZ501-503-504-510>518-250300-
NORTHWEST PLATEAU/NORTHCENTRAL MOUNTAINS

CITY           SKY/WX    TMP DP  RH WIND       PRES   REMARKS
FARMINGTON     CLEAR     31  13  47 N8        30.29R WCI  23
LOS ALAMOS     CLEAR     28  13  52 N7        30.18R WCI  21
SANTA FE       PTCLDY    24  18  77 NW5       30.19R WCI  18
TAOS           PTCLDY    16   7  67 CALM      30.19R
ANGEL FIRE     FAIR       8   2  75 CALM      30.18R

$$
NMZ402-403-502-505>509-250300-
WESTCENTRAL MOUNTAINS/SOUTHWEST MOUNTAINS

CITY           SKY/WX    TMP DP  RH WIND       PRES   REMARKS
GALLUP         PTCLDY    31   3  30 N10       30.30R WCI  22
GRANTS         CLEAR     28   7  40 NW15G21   30.28R WCI  17
SILVER CITY    CLEAR     41  -2  16 N18       30.20R

$$
NMZ407-409-411-412-250300-
SOUTHERN DESERTS

CITY           SKY/WX    TMP DP  RH WIND       PRES   REMARKS
LORDSBURG      FAIR      45  -8  11 NW13      30.19R
DEMING         CLEAR     49  -2  12 N16G28    30.14R
HOLLOMAN AFB   MOCLDY    45   8  21 N9        30.17R
T OR C         PTCLDY    43  12  28 N18G24    30.19R

$$
NMZ519>523-250300-
CENTRAL VALLEYS/CENTRAL HIGHLANDS

CITY           SKY/WX    TMP DP  RH WIND       PRES   REMARKS
ALBUQUERQUE    MOCLDY    37  17  44 N17       30.23R WCI  27
DOUBLE EAGLE   PTCLDY    34  10  37 NW22G30   30.21R WCI  22
MORIARTY ARPT  FAIR      30  19  64 N10       30.20R WCI  21
CLINES CORNERS CLOUDY    28  17  63 NW13      30.14R WCI  17
BELEN          FAIR      34   7  32 NW8       30.22R WCI  27
SOCORRO        FAIR      41   5  23 N21G28    30.21R

$$
NMZ524>526-539-540-250300-
SOUTHCENTRAL MOUNTAINS

CITY           SKY/WX    TMP DP  RH WIND       PRES   REMARKS
RUIDOSO        MOCLDY    32   0  25 NW13G24   30.17R WCI  22

$$
NMZ527>531-250300-
NORTHEAST HIGHLANDS/NORTHEAST PLAINS

CITY           SKY/WX    TMP DP  RH WIND       PRES   REMARKS
LAS VEGAS      MOCLDY    27  12  53 N10       30.15R WCI  17
RATON          CLOUDY    29  17  61 E5        30.16R WCI  24
CLAYTON        CLOUDY    36  12  37 N13G22    30.14R WCI  27

$$
NMZ532>537-250300-
EASTCENTRAL PLAINS

CITY           SKY/WX    TMP DP  RH WIND       PRES   REMARKS
TUCUMCARI      PTCLDY    31  22  69 VRB3      30.13R
CANNON AFB     MOCLDY    32   9  37 N9        30.13R WCI  25
CLOVIS AIRPORT MOCLDY    30   5  34 N10       30.12R WCI  21

$$
NMZ028-029-538-250300-
SOUTHEAST PLAINS

CITY           SKY/WX    TMP DP  RH WIND       PRES   REMARKS
ROSWELL        PTCLDY    44   7  21 W7        30.12R
CARLSBAD       MOCLDY    48  12  23 NW7       30.10R
HOBBS          MOCLDY    45  10  24 NW9       30.10R


$$



USA.gov is the U.S. government's official web portal to all federal, state and local government web resources and services.